Terug naar catalogus

M-3H R/B

ActiefHEO
NORAD 11028·ROCKET BODY·🇯🇵 Japan

Gelanceerd Sep 16, 1978 vanaf Uchinoura Space Center

Loading…

Volgende Passages (komende 24 uur)

TLE

VersSource: Space-Track

Epoch: Sep 14, 2026, 07:07 UTC

1 11028U 78087B   26257.29654211  .00025074  00000-0  84969-3 0  9991
2 11028  31.2439 203.7340 3982287 191.4794 155.8329  7.52154682732655

Volg M-3H R/B in realtime met AllMySat

Download on the App Store